User: anonymous   Login
Location: Pilipovskiye Korichintsy
(49.1833°N, 27.4667°E)
Time: 09:28:47
(UTC+00:00)
Language:

Cosmos 2278 - Orbit

View from above orbital plane
View from above orbital plane
View from above satellite
View from above satellite

Ground track
Ground track

The orbit data is extracted from the following two-line orbital elements,

1 23087U 94023A   20271.83884825 +.00000007 +00000-0 +28597-4 0  9998
2 23087 071.0551 013.6500 0009503 197.4992 162.5804 14.13804808363661
Epoch (UTC): 27 September 2020 20:07:56
Eccentricity: 0.0009503
inclination: 71.0551°
perigee height: 839 km
apogee height: 853 km
right ascension of ascending node: 13.6500°
argument of perigee: 197.4992°
revolutions per day: 14.13804808
mean anomaly at epoch: 162.5804°
orbit number at epoch: 36366

The dashed part of the orbit path shows where the satellite is in the earth's shadow,  

DLR